This demonstration page uses our WeatherBlox Daily Observations layout. Learn more.

Left ArrowRight Arrow

39.92423, -83.80882

Hourly Observations for May 8, 2020

Temp ( °F °C ) Dew Point ( °F °C ) Humidity (%) Winds ( mph kmh ) Pressure ( in mb ) Visibility ( mi km ) Precip ( " mm )
12:56 am 00:56 Cloudy 55 12.8 42 5.6 62 62 WSW 10 17 29.88 1012 10 16.0934 0.001 0.001
1:56 am 01:56 Cloudy 55 12.8 42 5.6 62 62 WSW 12 19 29.86 1011 10 16.0934 0 0
2:56 am 02:56 Cloudy 54 12.2 42 5.6 64 64 WSW 13 20 29.85 1011 10 16.0934 0 0
3:56 am 03:56 Partly Cloudy 53 11.7 43 6.1 69 69 WSW 10 17 29.83 1010 10 16.0934 0 0
4:56 am 04:56 Mostly Cloudy 53 11.7 43 6.1 69 69 WSW 13 20 29.82 1010 10 16.0934 0 0
5:56 am 05:56 Cloudy 52 11.1 44 6.7 75 75 WSW 15 24 29.81 1009 10 16.0934 0 0
6:56 am 06:56 Cloudy with Light Rain 51 10.6 44 6.7 77 77 WSW 16 26 29.8 1009 10 16.0934 0.001 0.001
7:56 am 07:56 Cloudy with Light Rain 49 9.4 47 8.3 93 93 WSW 13 20 29.82 1010 10 16.0934 0.01 0.254
8:56 am 08:56 Cloudy with Light Rain 49 9.4 48 8.9 97 97 WSW 9 15 29.81 1010 8 12.87472 0.001 0.001
9:38 am 09:38 Cloudy with Light Rain 48 9 48 9 100 100 WSW 10 17 29.81 1009 9 14.48406 0.01 0.254
9:49 am 09:49 Cloudy with Light Rain 48 9 48 9 100 100 WSW 9 15 29.81 1009 7 11.26538 0.01 0.254
9:56 am 09:56 Cloudy with Light Rain 49 9.4 49 9.4 100 100 W 9 15 29.8 1009 7 11.26538 0.01 0.254
10:41 am 10:41 Cloudy with Rain 46 8 45 7 93 93 W 12 19 29.82 1010 9 14.48406 0 0
10:56 am 10:56 Cloudy with Light Rain 46 7.8 46 7.8 100 100 W 9 15 29.8 1009 9 14.48406 0 0
11:56 am 11:56 Cloudy with Light Rain 48 8.9 47 8.3 96 96 W 10 17 29.8 1009 9 14.48406 0.03 0.762
12:48 pm 12:48 Cloudy with Light Rain 48 9 46 8 94 94 NNW 16 26 29.82 1010 10 16.0934 0.14 3.556
12:56 pm 12:56 Cloudy 48 8.9 46 7.8 93 93 N 18 30 29.81 1009 10 16.0934 0.19 4.826
1:04 pm 13:04 Cloudy 46 8 45 7 93 93 N 16 26 29.82 1010 10 16.0934 0.06 1.524
1:11 pm 13:11 Cloudy 46 8 43 6 87 87 N 18 30 29.83 1010 10 16.0934 0.07 1.778
1:56 pm 13:56 Cloudy 46 7.8 39 3.9 77 77 N 13 20 29.83 1010 10 16.0934 0.74 18.796
2:05 pm 14:05 Cloudy 46 8 39 4 76 76 N 18 30 29.84 1010 10 16.0934 0.74 18.796
2:17 pm 14:17 Mostly Cloudy 46 8 37 3 71 71 N 18 30 29.85 1011 10 16.0934 0.74 18.796
2:56 pm 14:56 Mostly Cloudy 47 8.3 35 1.7 63 63 N 17 28 29.85 1011 10 16.0934 0.76 19.304
3:56 pm 15:56 Mostly Cloudy 48 8.9 34 1.1 58 58 N 17 28 29.87 1012 10 16.0934 0.58 14.732
4:56 pm 16:56 Mostly Cloudy 46 7.8 32 0 58 58 N 15 24 29.88 1012 10 16.0934 0.71 18.034
5:56 pm 17:56 Cloudy 45 7.2 31 -0.6 58 58 N 13 20 29.9 1013 10 16.0934 0.01 0.254
6:56 pm 18:56 Cloudy 47 8.3 29 -1.7 50 50 N 10 17 29.92 1013 10 16.0934 0.01 0.254
7:56 pm 19:56 Cloudy 45 7.2 31 -0.6 58 58 NNW 10 17 29.96 1014 10 16.0934 0.01 0.254
8:56 pm 20:56 Clear 42 5.6 21 -6.1 43 43 NNW 14 22 30 1016 10 16.0934 0 0
9:56 pm 21:56 Clear 39 3.9 19 -7.2 45 45 NW 16 26 30.05 1018 10 16.0934 0.02 0.508
10:56 pm 22:56 Clear 37 2.8 19 -7.2 48 48 NW 13 20 30.09 1019 10 16.0934 0 0
11:56 pm 23:56 Clear 36 2.2 20 -6.7 52 52 NW 15 24 30.11 1020 10 16.0934 0 0

Powered by AerisWeather